Location: Albany
(42.6526°N, 73.7562°W)
Time: 22:12:18
(UTC+00:00)

Tsikada Rocket - Pass Details

Date: 19 November 2019
Orbit: 958 x 1009 km, 82.9° (Epoch: 10 December)

Event Time Altitude Azimuth Distance (km) Brightness Sun altitude
Rises 22:33:59 0° 167° (SSE) 3,702 7.1 -12.0°
Reaches altitude 10° 22:36:34 10° 161° (SSE) 2,763 6.3 -12.4°
Maximum altitude 22:42:36 47° 90° (E) 1,311 4.3 -13.5°
Drops below altitude 10° 22:48:41 10° 19° (NNE) 2,796 6.1 -14.6°
Sets 22:51:19 0° 14° (NNE) 3,751 6.8 -15.1°
